Regional Weather Roundup
Issued by NWS

Home | Current Version | Previous Version | Graphics & Text | Print | Product List | Glossary On
Versions: 1 2 3 4 5 6 7 8 9 10 11 12 13 14 15 16 17 18 19 20 21 22 23 24 25 26 27 28 29 30 31 32 33 34 35 36 37 38 39 40 41 42 43 44 45 46 47 48 49 50
000
ASUS43 KDMX 201207
RWRIA

WEATHER ROUNDUP FOR IOWA
NATIONAL WEATHER SERVICE DES MOINES IA
700 AM CDT SAT SEP 20 2014

NOTE: "FAIR" INDICATES FEW OR NO CLOUDS BELOW 12,000 FEET WITH NO
SIGNIFICANT WEATHER AND/OR OBSTRUCTIONS TO VISIBILITY.

* - THESE STATIONS ARE NOT NWS STATIONS...THUS NOT UNDER NWS
QUALITY CONTROL.  THEY ALSO DO NOT REPORT WEATHER SUCH
AS PRECIPITATION OR FOG.

IAZ001>003-012>014-020>022-031>034-043>046-201300-
   NORTHWEST IOWA

CITY           SKY/WX    TMP DP  RH WIND       PRES   REMARKS
CARROLL *      MOCLDY    66  64  94 S10G16    29.87R
CHEROKEE *     MOCLDY    63  63 100 SW3       29.86R
DENISON *      PTCLDY    66  66 100 VRB7G14   29.85R
LE MARS *        N/A     64  63  94 CALM      29.87R
ORANGE CITY *  MOCLDY    64  61  88 NW8       29.88R
SHELDON *      LGT RAIN  61  61 100 CALM      29.87R
SIOUX CITY     PTCLDY    61  61 100 W6        29.87R
6HR MIN TEMP:  60; 6HR MAX TEMP:  68; 6HR PCP:  0.23;

SPENCER        MOCLDY    65  62  90 NW8       29.84S
6HR MIN TEMP:  64; 6HR MAX TEMP:  67; 6HR PCP: TRACE;

STORM LAKE *   CLOUDY    64  64 100 SW7       29.85S
$$

IAZ055>058-069>071-079>083-090>094-201300-
   SOUTHWEST IOWA

CITY           SKY/WX    TMP DP  RH WIND       PRES   REMARKS
ATLANTIC *     LGT RAIN  68  66  94 S13       29.88S
AUDUBON *      CLOUDY    66  61  82 S7        29.90R
CLARINDA *     PTCLDY    68  68 100 S8        29.92F FOG
COUNCIL BLFS * MOCLDY    68  68 100 SE5       29.89S
CRESTON *      MOCLDY    66  66 100 S6        29.94R FOG
HARLAN  *      PTCLDY    68  68 100 S13       29.91R FOG
LAMONI         CLOUDY    67  66  97 S5        29.97S FOG
6HR MIN TEMP:  66; 6HR MAX TEMP:  68;

RED OAK *      MOCLDY    68  64  88 CALM      29.90F
SHENANDOAH *   MOCLDY    68  68 100 S9        29.90F FOG
$$

IAZ047>049-059>061-072>074-084-201300-
   CENTRAL IOWA

CITY           SKY/WX    TMP DP  RH WIND       PRES   REMARKS
AMES           CLOUDY    66  64  93 SW7       29.87R
6HR MIN TEMP:  65; 6HR MAX TEMP:  70; 6HR PCP:  0.27;

ANKENY *       MOCLDY    68  64  88 SW6G16    29.89R
CHARITON *     CLOUDY    68  66  94 CALM      29.95R FOG
DES MOINES     TSTM      69  64  84 SW23G32   29.87F
6HR MIN TEMP:  69; 6HR MAX TEMP:  73; 6HR PCP:  0.05;

GRINNELL*      RAIN      66  64  93 S18       29.88F
KNOXVILLE *    CLOUDY    68  66  94 CALM      29.92R FOG
MARSHALLTOWN   LGT RAIN  66  62  87 SW10      29.86R
6HR MIN TEMP:  65; 6HR MAX TEMP:  71; 6HR PCP:  0.12;

PELLA *        RAIN      67  65  96 CALM      29.94R
PERRY *        CLOUDY    66  62  86 SW14      29.86S
$$

IAZ004>006-015-016-023>025-035-036-201300-
   NORTH CENTRAL IOWA

CITY           SKY/WX    TMP DP  RH WIND       PRES   REMARKS
ALGONA *       MOCLDY    64  64 100 SW9G16    29.83F
CLARION *        N/A     64  64 100 S9        29.84R
ESTHERVILLE    CLOUDY    63  63 100 W6        29.83R
6HR MIN TEMP:  63; 6HR MAX TEMP:  67; 6HR PCP: TRACE;

FORT DODGE *   CLOUDY    64  61  88 S3        29.86R
MASON CITY     LGT RAIN  65  63  93 SW16      29.83R
6HR MIN TEMP:  64; 6HR MAX TEMP:  69; 6HR PCP:  0.07;

FOREST CITY *  MOCLDY    64  64 100 SW8       29.82S
IOWA FALLS *     N/A     64  61  88 S10       29.86S
$$

IAZ007>011-017>019-026>030-037>042-050>054-066-201300-
   NORTHEAST IOWA

CITY           SKY/WX    TMP DP  RH WIND       PRES   REMARKS
CEDAR RAPIDS   LGT RAIN  64  64 100 S10       29.86F FOG
6HR MIN TEMP:  63; 6HR MAX TEMP:  65; 6HR PCP:  0.04;

CHARLES CITY * CLOUDY    64  63  94 SW12      29.81F
CLINTON *      CLOUDY    61  59  94 S10       29.91F
DECORAH *      CLEAR     64  63  94 SW8G15    29.79S
DUBUQUE        CLOUDY    63  62  97 S13       29.81F FOG
6HR MIN TEMP:  61; 6HR MAX TEMP:  64;

MONTICELLO *   PTCLDY    66  64  94 S10G16    29.79F
OELWEIN *      PTCLDY    64  63  94 SW8       29.83F
WATERLOO       CLOUDY    65  62  90 SW7       29.82R
6HR MIN TEMP:  65; 6HR MAX TEMP:  68; 6HR PCP:  0.20;

$$

IAZ064-065-067-068-078-201300-
   EAST CENTRAL IOWA

CITY           SKY/WX    TMP DP  RH WIND       PRES   REMARKS
DAVENPORT      CLOUDY    63  60  90 SW9       29.90F FOG
6HR MIN TEMP:  63; 6HR MAX TEMP:  66; 6HR PCP:  0.01;

IOWA CITY      CLOUDY    63  63 100 SW3       29.90S FOG
6HR MIN TEMP:  62; 6HR MAX TEMP:  66; 6HR PCP:  0.03;

MT. PLEASANT * CLOUDY    63  61  94 S6        29.94S FOG
MUSCATINE *    MOCLDY    64  61  88 SE5       29.90F
QUAD CITIES    LGT RAIN  63  60  90 SW6       29.90F FOG
6HR MIN TEMP:  63; 6HR MAX TEMP:  66; 6HR PCP:  0.05;

$$

IAZ062-063-075>077-085>089-095>099-201300-
   SOUTHEAST IOWA

CITY           SKY/WX    TMP DP  RH WIND       PRES   REMARKS
BURLINGTON     CLOUDY    64  62  93 S6        29.95S
6HR MIN TEMP:  62; 6HR MAX TEMP:  65; 6HR PCP: TRACE;

FAIRFIELD *    CLOUDY    64  63  94 S6        29.93S
FORT MADISON * CLOUDY    64  63  94 S6        29.97F
KEOKUK *       CLOUDY    63  61  94 SW6       29.98R
OSKALOOSA *    MOCLDY    65  64  97 S5        29.93R FOG
CENTERVILLE *  MOCLDY    66  66 100 S7        29.97F
OTTUMWA        CLOUDY    66  64  93 S6        29.93F
6HR MIN TEMP:  64; 6HR MAX TEMP:  67; 6HR PCP: TRACE;

WASHINGTON *   CLEAR     64  64 100 S8        29.91F FOG
$$

ABBREVIATIONS USED IN REMARKS
   TC - TEMPERATURES IN CELSIUS
  WCI - WIND CHILL INDEX
   HX - HEAT INDEX
  VSB - VISIBILITY
$$




USA.gov is the U.S. government's official web portal to all federal, state and local government web resources and services.